Regional Weather Roundup
Issued by NWS

Home | Current Version | Previous Version | Text Only | Print | Product List | Glossary Off
Versions: 1 2 3 4 5 6 7 8 9 10 11 12 13 14 15 16 17 18 19 20 21 22 23 24 25 26 27 28 29 30 31 32 33 34 35 36 37 38 39 40 41 42 43 44 45 46 47 48 49 50

000
ASUS45 KSLC 270710
RWRUT

UTAH REGIONAL WEATHER ROUNDUP
NATIONAL WEATHER SERVICE SALT LAKE CITY UT
100 AM MDT WED AUG 27 2014

UTZ001>011-023>025-270800-

NORTHERN UTAH

CITY           SKY/WX    TMP DP  RH WIND       PRES   REMARKS
HILL AFB       CLOUDY    61  51  70 CALM      30.19S
LOGAN          CLEAR     56  51  84 CALM      30.17S
OGDEN          CLOUDY    62  51  67 CALM      30.17S
PROVO AIRPORT  CLOUDY    59  52  77 E5        30.21S
SALT LAKE CITY CLOUDY    61  55  81 SE3       30.17R
VERNAL         CLOUDY    59  52  77 N6        30.23S
WENDOVER       CLOUDY    64  48  55 CALM      30.17F
HEBER CITY     CLOUDY    55  48  76 CALM      30.23R

$$

UTZ012>022-026-027-270800-

SOUTHERN UTAH

CITY           SKY/WX    TMP DP  RH WIND       PRES   REMARKS
BRYCE CANYON   LGT RAIN  44  41  89 NE3       30.41F FOG
CEDAR CITY     CLOUDY    55  45  68 E6        30.21R
MILFORD        MOCLDY    56  51  84 CALM      30.20F
MOAB/CYNLANDS  CLEAR     64  50  60 E6        30.19R
PRICE          MOCLDY    58  47  66 E5        30.26R
ST GEORGE      CLOUDY    66  52  59 CALM      30.13S
KANAB            N/A     54  48  82 E6        30.28S

$$

REGIONAL REPORTS     COLORADO/ARIZONA

CITY           SKY/WX    TMP DP  RH WIND       PRES   REMARKS
CRAIG, CO      CLOUDY    57  50  77 W6        30.26S
GRAND JUNCTION LGT RAIN  58  56  93 SE8       30.23F
RIFLE          RAIN      56  54  93 W6        30.27S FOG
MONTROSE       LGT RAIN  57  54  89 SE9       30.29F
CORTEZ         CLEAR     54  53  97 CALM      30.28S
PAGE, AZ       LGT RAIN  60  51  72 W8G20     30.28R
GRAND CANYON     N/A    N/A N/A N/A MISG        N/A
KINGMAN        CLEAR     68  58  70 SE10      30.09R
FLAGSTAFF      CLOUDY    50  48  93 CALM      30.36R

$$

REGIONAL REPORTS    NEVADA/IDAHO/WYOMING

CITY           SKY/WX    TMP DP  RH WIND       PRES   REMARKS
LAS VEGAS, NV  PTCLDY    82  42  24 NE6       29.95R
ELY            PTCLDY    43  41  93 S8        30.28R
ELKO           MOCLDY    55  45  68 E6        30.21S
POCATELLO, ID  MOCLDY    60  53  77 SW13      30.17R
BURLEY         CLEAR     58  49  72 SW9       30.14F
EVANSTON, WY   MOCLDY    51  44  77 NW5       30.29S
ROCK SPRINGS   MOCLDY    52  41  66 E5        30.28S

$$



USA.gov is the U.S. government's official web portal to all federal, state and local government web resources and services.